Weather reports worldwide

Advertisment
Damaskus/Intl, Syria (40080): temperature & dewpoint: 07.12.2017 15:00:00 - 13.12.2017 15:00:00 (EET)Damaskus/Intl, Syria (40080): wind speed: 07.12.2017 15:00:00 - 13.12.2017 15:00:00 (EET)Damaskus/Intl, Syria (40080): wind direction: 07.12.2017 15:00:00 - 13.12.2017 15:00:00 (EET)Damaskus/Intl, Syria (40080): reduced air pressure: 07.12.2017 15:00:00 - 13.12.2017 15:00:00 (EET)Damaskus/Intl, Syria (40080): visibility: 07.12.2017 15:00:00 - 13.12.2017 15:00:00 (EET)
Date & Time tt [°C] td [°C] ff [km/h] ff [kn] dd ppp [hPa] vv [km]
13.12.2017 15:00:00 19,0 5,0 41 22 SW - 10
13.12.2017 14:00:00 22,0 7,1 31 17 SW 1015,3 10
13.12.2017 13:00:00 19,0 -9,0 22 12 SSW - 10
13.12.2017 12:00:00 17,0 -9,0 0 0 N - 10
13.12.2017 11:00:00 14,0 -6,0 8 4 N 1019,7 10
13.12.2017 10:00:00 11,0 -9,0 5 3 N - 10
13.12.2017 09:00:00 7,0 -10,0 0 0 N - 10
13.12.2017 08:00:00 2,2 -9,1 0 0 N 1021,5 15
13.12.2017 07:00:00 - - - - - - -
13.12.2017 06:00:00 1,0 -11,0 0 0 N - 10
13.12.2017 05:00:00 3,6 -7,7 0 0 N 1018,5 10
13.12.2017 04:00:00 5,0 -11,0 4 2 N - 10
13.12.2017 03:00:00 5,0 -9,0 4 2 WSW - 10
13.12.2017 02:00:00 5,2 -7,8 8 4 W 1021,2 10
13.12.2017 01:00:00 - - - - - - -
13.12.2017 00:00:00 - - - - - - -
12.12.2017 23:00:00 5,6 -3,6 7 4 NNE 1023,0 15
12.12.2017 22:00:00 - - - - - - -
12.12.2017 21:00:00 7,0 -12,0 11 6 N - 10
12.12.2017 20:00:00 7,0 -12,0 8 4 E - 10
12.12.2017 19:00:00 - - 5 3 - - 10
12.12.2017 18:00:00 - - - - - - -
12.12.2017 17:00:00 14,2 -5,2 0 0 N 1023,6 15
12.12.2017 16:00:00 18,0 -10,0 0 0 N - 10
12.12.2017 15:00:00 18,0 -10,0 0 0 N - 10
12.12.2017 14:00:00 17,7 -4,6 8 4 ENE 1023,2 10
12.12.2017 13:00:00 - - - - - - -
12.12.2017 12:00:00 - - - - - - -
12.12.2017 11:00:00 1,6 -4,5 4 2 NE 1026,9 10
12.12.2017 10:00:00 10,0 -8,0 8 4 ENE - 10
12.12.2017 09:00:00 7,0 -8,0 8 4 NE - 10
12.12.2017 08:00:00 2,0 -7,9 8 4 N 1028,8 10
12.12.2017 07:00:00 1,0 -11,0 11 6 NNE - 10
12.12.2017 06:00:00 1,0 -11,0 9 5 NNE - 10
12.12.2017 05:00:00 0,4 -10,5 0 0 N 1026,9 10
12.12.2017 04:00:00 0,0 -13,0 0 0 N - 10
12.12.2017 03:00:00 1,0 -1,0 13 7 N - 10
12.12.2017 02:00:00 2,0 -10,5 0 0 N 1027,2 10
12.12.2017 01:00:00 1,0 -12,0 0 0 N - 10
12.12.2017 00:00:00 2,0 -13,0 0 0 N - 10
11.12.2017 23:00:00 2,0 -10,5 9 5 ENE 1027,8 10
11.12.2017 22:00:00 4,0 -12,0 8 4 NNE - 10
11.12.2017 21:00:00 5,0 -11,0 11 6 N - 10
11.12.2017 20:00:00 5,0 -5,5 8 4 NNE 1029,3 10
11.12.2017 19:00:00 7,0 -9,0 0 0 N - 10
11.12.2017 18:00:00 10,0 -9,0 2 1 E - 10
11.12.2017 17:00:00 13,6 -0,3 0 0 N 1026,0 10
11.12.2017 16:00:00 16,0 -8,0 0 0 N - 10
11.12.2017 15:00:00 16,0 -8,0 11 6 E - 10
11.12.2017 14:00:00 15,8 -5,8 8 4 E 1025,3 10
11.12.2017 13:00:00 14,0 -8,0 11 6 E - 10
11.12.2017 12:00:00 13,0 -8,0 0 0 N - 10
11.12.2017 11:00:00 11,4 -4,5 8 4 E 1028,2 10
11.12.2017 10:00:00 9,0 -9,0 8 4 E - 10
11.12.2017 09:00:00 6,0 -5,0 11 6 ENE - 10
11.12.2017 08:00:00 3,5 -6,0 11 6 ENE 1028,1 10
11.12.2017 07:00:00 -3,0 -8,0 8 4 NE - 10
11.12.2017 06:00:00 -2,0 -8,0 4 2 NW - 10
11.12.2017 05:00:00 -1,0 -7,5 0 0 N 1025,5 10
11.12.2017 04:00:00 3,0 -5,0 15 8 NE - 10
11.12.2017 03:00:00 2,0 -5,0 21 11 N - 10
11.12.2017 02:00:00 0,4 -7,0 0 0 N 1025,3 10
11.12.2017 01:00:00 0,0 -8,0 11 6 NNE - 10
11.12.2017 00:00:00 2,0 -6,0 - - E - 10
10.12.2017 23:00:00 3,9 -5,4 0 0 N 1024,2 10
10.12.2017 22:00:00 5,0 -5,0 8 4 NNE - 10
10.12.2017 21:00:00 4,0 -9,0 0 0 N - 10
10.12.2017 20:00:00 5,1 -10,3 8 4 N 1024,5 10
10.12.2017 19:00:00 6,0 -10,0 8 4 NW - 10
10.12.2017 18:00:00 6,0 -10,0 11 6 NNE - 10
10.12.2017 17:00:00 9,0 -8,9 5 3 NW 1022,9 10
10.12.2017 16:00:00 11,0 -9,0 5 3 NNW - 10
10.12.2017 15:00:00 - - 5 3 SE - 10
10.12.2017 14:00:00 11,6 -9,0 0 0 N 1022,4 10
10.12.2017 13:00:00 12,0 -9,0 0 0 N - 10
10.12.2017 12:00:00 10,0 -9,0 8 4 NNE - 10
10.12.2017 11:00:00 8,0 -9,1 0 0 N 1024,8 10
10.12.2017 10:00:00 6,0 -9,0 8 4 NNW - 10
10.12.2017 09:00:00 4,0 -6,0 5 3 NNE - 10
10.12.2017 08:00:00 -1,0 -4,0 0 0 N 1025,4 10
10.12.2017 07:00:00 -3,0 -6,0 8 4 N - 10
10.12.2017 06:00:00 -3,0 -6,0 0 0 N - 10
10.12.2017 05:00:00 -1,2 -6,4 0 0 N 1024,0 10
10.12.2017 04:00:00 -2,0 -4,0 0 0 N - 10
10.12.2017 03:00:00 -1,0 -8,0 0 0 N - 10
10.12.2017 02:00:00 -1,2 -9,3 0 0 N 1024,5 15
10.12.2017 01:00:00 -1,0 -7,0 0 0 N - 10
10.12.2017 00:00:00 1,0 -6,0 0 0 N - 10
09.12.2017 23:00:00 1,0 -2,9 11 6 WNW 1026,1 10
09.12.2017 22:00:00 1,0 -4,0 13 7 NNW - 10
09.12.2017 21:00:00 4,0 -5,0 8 4 NE - 10
09.12.2017 20:00:00 4,6 -4,7 9 5 NE 1025,5 10
09.12.2017 19:00:00 5,0 -3,0 8 4 N - 10
09.12.2017 18:00:00 8,0 -2,0 8 4 NNE - 10
09.12.2017 17:00:00 11,0 -0,1 8 4 N 1024,2 10
09.12.2017 16:00:00 14,0 0,0 5 3 NNW - 10
09.12.2017 15:00:00 15,0 2,0 5 3 NW - 10
09.12.2017 14:00:00 14,6 0,5 8 4 E 1024,2 10
09.12.2017 13:00:00 13,0 0,0 8 4 NE - 10
09.12.2017 12:00:00 13,0 0,0 8 4 ESE - 10
09.12.2017 11:00:00 10,0 -0,8 5 3 NNE 1027,1 10
09.12.2017 10:00:00 6,0 -1,0 0 0 N - 10
09.12.2017 09:00:00 2,0 -5,0 8 4 NNW - 10
09.12.2017 08:00:00 -2,0 -8,0 0 0 N - 10
09.12.2017 07:00:00 -6,0 -10,0 0 0 N - 10
09.12.2017 06:00:00 -5,0 -9,0 0 0 N - 10
09.12.2017 05:00:00 -4,0 -8,0 0 0 N - -
09.12.2017 04:00:00 -3,0 -7,0 0 0 N - 10
09.12.2017 03:00:00 -3,0 -7,0 0 0 N - 10
09.12.2017 02:00:00 -1,8 -5,9 0 0 N 1026,8 10
09.12.2017 01:00:00 -1,0 -6,0 0 0 N - 10
09.12.2017 00:00:00 1,0 -5,0 0 0 N - 10
08.12.2017 23:00:00 1,0 -5,1 0 0 N 1027,8 10
08.12.2017 22:00:00 1,0 -5,0 4 2 SW - 10
08.12.2017 21:00:00 2,0 -5,0 4 2 WSW - 10
08.12.2017 20:00:00 3,6 -3,6 4 2 N 1028,0 10
08.12.2017 19:00:00 5,0 -3,0 4 2 NNW - 10
08.12.2017 18:00:00 8,0 -1,0 0 0 N - 10
08.12.2017 17:00:00 9,0 -2,0 4 2 ENE - 10
08.12.2017 16:00:00 12,0 -1,0 4 2 ESE - 10
08.12.2017 15:00:00 12,0 -1,0 0 0 N - 10
08.12.2017 14:00:00 13,0 -1,0 8 4 ENE - 10
08.12.2017 13:00:00 12,0 0,0 4 2 N - 10
08.12.2017 12:00:00 11,0 1,0 8 4 W - 10
08.12.2017 11:00:00 10,0 3,4 4 2 NW 1027,8 10
08.12.2017 10:00:00 7,0 1,0 8 4 NW - 10
08.12.2017 09:00:00 3,0 -2,0 0 0 N - 10
08.12.2017 08:00:00 -1,0 -7,6 18 10 SSW 1029,9 8
08.12.2017 07:00:00 -4,0 -8,0 8 4 N - 10
08.12.2017 06:00:00 -5,0 -8,0 0 0 N - 10
08.12.2017 05:00:00 -3,6 -6,8 9 5 N 1026,8 10
08.12.2017 04:00:00 -4,0 -8,0 0 0 N - 10
08.12.2017 03:00:00 -1,0 -4,0 0 0 N - 10
08.12.2017 02:00:00 -1,0 -4,2 8 4 WSW 1025,7 10
08.12.2017 01:00:00 -1,0 -7,0 18 10 W - 8
08.12.2017 00:00:00 1,0 -5,0 11 6 ENE - 10
07.12.2017 23:00:00 0,0 -6,0 9 5 SW - 10
07.12.2017 22:00:00 3,0 -5,0 11 6 N - 10
07.12.2017 21:00:00 3,0 -5,0 9 5 N - 10
07.12.2017 20:00:00 6,0 -3,0 13 7 NE - 10
07.12.2017 19:00:00 8,0 -2,0 18 10 W - 10
07.12.2017 18:00:00 - - - - - - -
07.12.2017 17:00:00 10,2 -2,0 28 15 WNW 1021,0 10
07.12.2017 16:00:00 12,0 -7,0 26 14 WNW - 10
07.12.2017 15:00:00 13,0 -3,0 18 10 W - 10

tt = temperature
td = dewpoint
ff = wind speed
dd = wind direction
ppp = reduced air pressure
vv = visibility

Next stations